User: anonymous   Login
Location: Unspecified
(0.0000°N, 0.0000°E)
Time: 09:11:19
(UTC+01:00)
Language:

Centaur D-1AR AC-41 - Orbit

View from above orbital plane
View from above orbital plane
View from above satellite
View from above satellite

Ground track
Ground track

The orbit data is extracted from the following two-line orbital elements,

1 10976U 78068B   16038.37128206 -.00000234  00000-0 -12417-3 0  9998
2 10976  21.9141  13.6784 7182797 314.2928  46.4648  2.22313357305224
Epoch (UTC): 07 February 2016 08:54:38
Eccentricity: 0.7182797
inclination: 21.9141°
perigee height: 608 km
apogee height: 36232 km
right ascension of ascending node: 13.6784°
argument of perigee: 314.2928°
revolutions per day: 2.22313357
mean anomaly at epoch: 46.4648°
orbit number at epoch: 30522

The dashed part of the orbit path shows where the satellite is in the earth's shadow,  

DLR